period_start,C,m1,H,J0,J1,J2,J3,J4,J5,JA,JB,JC,JD,JJ,JK,JN,#
2013-09-26 00:00:12,0.01,0.40,0.00,25.04,29.97,32.52,5.97,30.71,1004.76,2037.86,3315.99,3212.01,3484.98,350.53,318.61,13.62,0000 0000 0000 0000 000000
2013-09-26 00:01:12,0.04,0.40,0.00,25.03,29.97,32.48,5.92,30.42,1004.77,2037.84,3315.98,3212.01,3484.97,349.96,317.97,13.62,0000 0000 0000 0000 000000
2013-09-26 00:02:13,-0.01,0.40,0.00,25.02,29.97,32.52,5.88,30.33,1004.81,2037.81,3315.97,3212.00,3484.93,351.09,318.84,13.63,0000 0000 0000 0000 000000
2013-09-26 00:03:13,-0.01,0.40,0.00,25.02,29.95,32.52,5.95,30.42,1004.77,2037.86,3315.94,3212.01,3484.96,349.40,317.30,13.64,0000 0000 0000 0000 000000
2013-09-26 00:04:13,0.03,0.40,0.00,25.03,29.95,32.46,5.92,30.58,1004.79,2037.92,3315.97,3212.01,3484.98,350.23,318.23,13.64,0000 0000 0000 0000 000000
2013-09-26 00:05:14,0.04,0.40,0.00,25.02,29.95,32.46,6.00,30.67,1004.78,2037.87,3315.98,3212.01,3484.99,349.99,318.11,13.65,0000 0000 0000 0000 000000
2013-09-26 00:06:14,-0.04,0.40,0.00,25.03,29.95,32.40,5.92,30.63,1004.81,2037.86,3315.98,3212.01,3484.99,349.95,318.28,13.65,0000 0000 0000 0000 000000
2013-09-26 00:07:14,0.00,0.40,0.00,25.04,29.95,32.47,6.02,30.42,1004.79,2037.89,3315.98,3212.04,3484.98,351.17,318.63,13.66,0000 0000 0000 0000 000000
2013-09-26 00:08:14,0.00,0.40,0.00,25.04,29.95,32.46,5.95,30.63,1004.77,2037.91,3315.98,3212.08,3484.99,348.96,317.06,13.67,0000 0000 0000 0000 000000
2013-09-26 00:09:15,0.01,0.40,0.00,25.04,29.95,32.45,5.97,30.42,1004.80,2037.93,3315.99,3212.07,3484.99,350.52,318.48,13.67,0000 0000 0000 0000 000000
2013-09-26 00:10:15,0.01,0.40,0.00,25.04,29.95,32.45,5.78,30.29,1004.80,2037.95,3315.99,3212.09,3484.99,348.97,317.07,13.68,0000 0000 0000 0000 000000
2013-09-26 00:11:15,0.01,0.40,0.00,25.05,29.94,32.48,5.98,30.50,1004.80,2037.97,3315.99,3212.25,3484.99,349.76,317.79,13.68,0000 0000 0000 0000 000000
2013-09-26 00:12:15,-0.02,0.40,0.00,25.05,29.94,32.48,5.91,30.54,1004.84,2037.97,3315.99,3212.41,3484.99,349.38,317.45,13.69,0000 0000 0000 0000 000000
2013-09-26 00:13:16,-0.02,0.40,0.00,25.03,29.93,32.46,5.93,30.33,1004.79,2037.96,3315.99,3212.35,3484.99,350.47,318.53,13.69,0000 0000 0000 0000 000000
2013-09-26 00:14:16,0.00,0.40,0.00,25.01,29.92,32.43,5.75,30.58,1004.84,2037.96,3315.99,3212.38,3484.99,349.32,317.44,13.70,0000 0000 0000 0000 000000
2013-09-26 00:15:16,-0.00,0.40,0.00,25.03,29.92,32.48,5.86,30.50,1004.85,2037.98,3315.99,3212.49,3484.99,349.61,317.56,13.71,0000 0000 0000 0000 000000
2013-09-26 00:16:17,-0.00,0.40,0.00,25.02,29.92,32.49,5.88,30.67,1004.86,2037.98,3315.99,3212.45,3484.99,350.19,318.55,13.71,0000 0000 0000 0000 000000
2013-09-26 00:17:17,0.01,0.40,0.00,25.02,29.92,32.48,5.87,30.67,1004.83,2037.99,3315.99,3212.40,3484.99,349.37,317.47,13.72,0000 0000 0000 0000 000000
2013-09-26 00:18:17,0.00,0.40,0.00,25.03,29.92,32.48,5.80,30.54,1004.83,2037.99,3315.99,3212.55,3485.00,349.18,317.49,13.72,0000 0000 0000 0000 000000
2013-09-26 00:19:18,-0.03,0.40,0.00,25.02,29.92,32.40,5.79,30.54,1004.84,2037.98,3315.99,3212.59,3485.00,349.77,317.83,13.73,0000 0000 0000 0000 000000
2013-09-26 00:20:18,-0.01,0.40,0.00,25.03,29.92,32.39,5.99,30.50,1004.87,2037.99,3315.99,3212.71,3485.00,351.09,319.54,13.74,0000 0000 0000 0000 000000
2013-09-26 00:21:18,-0.02,0.40,0.00,25.02,29.92,32.34,5.87,30.50,1004.88,2037.99,3315.99,3212.76,3485.01,349.88,318.12,13.74,0000 0000 0000 0000 000000
2013-09-26 00:22:18,-0.01,0.40,0.00,25.02,29.92,32.33,5.82,30.67,1004.89,2037.99,3315.99,3212.82,3485.01,348.39,316.19,13.75,0000 0000 0000 0000 000000
2013-09-26 00:23:19,0.00,0.40,0.00,25.02,29.91,32.34,5.97,30.50,1004.90,2037.99,3315.99,3212.86,3485.03,350.44,317.97,13.75,0000 0000 0000 0000 000000
2013-09-26 00:24:19,-0.00,0.40,0.00,25.02,29.90,32.33,6.02,30.67,1004.90,2037.99,3315.99,3212.91,3485.02,350.66,318.52,13.76,0000 0000 0000 0000 000000
2013-09-26 00:25:19,-0.01,0.40,0.00,25.01,29.90,32.33,5.98,30.42,1004.88,2037.99,3315.99,3212.94,3485.02,349.93,318.08,13.76,0000 0000 0000 0000 000000
2013-09-26 00:26:19,0.00,0.40,0.00,25.01,29.90,32.34,6.07,30.67,1004.89,2037.99,3315.99,3212.93,3485.02,350.83,319.34,13.77,0000 0000 0000 0000 000000
2013-09-26 00:27:19,0.00,0.40,0.00,25.01,29.90,32.33,6.00,30.67,1004.90,2037.99,3315.99,3212.94,3485.07,349.99,318.07,13.78,0000 0000 0000 0000 000000
2013-09-26 00:28:20,-0.00,0.40,0.00,24.99,29.90,32.40,5.94,30.58,1004.90,2037.99,3315.99,3212.96,3485.09,350.62,318.65,13.78,0000 0000 0000 0000 000000
2013-09-26 00:29:20,-0.01,0.40,0.00,24.98,29.90,32.44,5.82,30.67,1004.90,2037.99,3315.97,3212.95,3485.10,348.04,316.32,13.79,0000 0000 0000 0000 000000
2013-09-26 00:30:20,0.01,0.40,0.00,24.99,29.90,32.43,5.78,30.54,1004.90,2037.99,3315.96,3212.90,3485.09,348.98,317.17,13.79,0000 0000 0000 0000 000000
2013-09-26 00:31:21,0.02,0.40,0.00,24.99,29.90,32.41,5.92,30.50,1004.90,2037.99,3315.96,3212.87,3485.06,349.46,317.60,13.80,0000 0000 0000 0000 000000
2013-09-26 00:32:21,0.02,0.40,0.00,25.00,29.90,32.41,6.01,30.54,1004.90,2038.00,3315.67,3212.74,3485.06,350.87,318.87,13.81,0000 0000 0000 0000 000000
2013-09-26 00:33:21,0.05,0.40,0.00,24.98,29.90,32.35,6.02,30.42,1004.90,2038.00,3315.30,3212.58,3485.02,350.57,318.89,13.81,0000 0000 0000 0000 000000
2013-09-26 00:34:21,0.10,0.40,0.00,24.98,29.89,32.31,5.90,30.67,1004.90,2038.00,3315.13,3212.34,3485.00,350.01,318.12,13.82,0000 0000 0000 0000 000000
2013-09-26 00:35:22,0.06,0.40,0.00,25.00,29.88,32.40,5.89,30.42,1004.90,2038.00,3315.26,3212.32,3485.01,350.43,318.48,13.82,0000 0000 0000 0000 000000
2013-09-26 00:36:22,-0.01,0.40,0.00,24.99,29.88,32.39,5.75,30.71,1004.90,2038.00,3315.35,3212.44,3485.00,349.23,317.40,13.83,0000 0000 0000 0000 000000
2013-09-26 00:37:22,-0.02,0.40,0.00,25.00,29.87,32.42,5.89,30.58,1004.90,2038.02,3315.25,3212.42,3485.01,350.02,318.11,13.84,0000 0000 0000 0000 000000
2013-09-26 00:38:22,0.01,0.40,0.00,25.00,29.87,32.41,5.93,30.58,1004.90,2038.04,3315.31,3212.59,3485.03,349.56,317.69,13.84,0000 0000 0000 0000 000000
2013-09-26 00:39:23,-0.01,0.40,0.00,25.00,29.87,32.38,5.81,30.50,1004.90,2038.05,3315.38,3212.61,3485.03,349.21,317.36,13.85,0000 0000 0000 0000 000000
2013-09-26 00:40:23,-0.03,0.40,0.00,24.99,29.87,32.38,5.87,30.58,1004.90,2038.04,3315.63,3212.75,3485.07,350.33,318.32,13.85,0000 0000 0000 0000 000000
2013-09-26 00:41:23,-0.04,0.40,0.00,24.99,29.87,32.36,5.79,30.71,1004.90,2038.05,3315.64,3212.76,3485.05,349.47,317.61,13.86,0000 0000 0000 0000 000000
2013-09-26 00:42:24,0.01,0.40,0.00,24.99,29.87,32.38,5.71,30.96,1004.90,2038.05,3315.42,3212.58,3485.02,349.31,317.51,13.86,0000 0000 0000 0000 000000
2013-09-26 00:43:24,0.05,0.40,0.00,25.00,29.87,32.41,5.87,30.96,1004.90,2038.03,3315.28,3212.43,3485.01,349.28,317.14,13.87,0000 0000 0000 0000 000000
2013-09-26 00:44:24,0.03,0.40,0.00,25.02,29.87,32.38,5.82,30.75,1004.90,2038.04,3315.26,3212.43,3485.02,349.35,317.58,13.88,0000 0000 0000 0000 000000
2013-09-26 00:45:24,-0.00,0.40,0.00,25.01,29.87,32.40,5.89,30.42,1004.90,2038.04,3315.18,3212.59,3485.01,349.55,317.74,13.88,0000 0000 0000 0000 000000
2013-09-26 00:46:25,0.01,0.40,0.00,24.99,29.86,32.38,5.96,30.46,1004.90,2038.15,3315.20,3212.74,3485.02,351.06,319.06,13.89,0000 0000 0000 0000 000000
2013-09-26 00:47:25,0.02,0.40,0.00,24.99,29.86,32.33,5.93,30.42,1004.90,2038.17,3315.22,3212.80,3485.01,350.60,318.53,13.89,0000 0000 0000 0000 000000
2013-09-26 00:48:25,-0.01,0.40,0.00,25.00,29.85,32.34,5.93,30.67,1004.90,2038.20,3315.33,3212.84,3485.02,348.94,317.13,13.90,0000 0000 0000 0000 000000
2013-09-26 00:49:25,-0.00,0.40,0.00,25.00,29.85,32.36,5.87,30.50,1004.90,2038.19,3315.50,3212.80,3485.03,350.30,318.59,13.91,0000 0000 0000 0000 000000
2013-09-26 00:50:26,0.02,0.40,0.00,24.99,29.85,32.38,6.01,30.58,1004.90,2038.23,3315.26,3212.76,3485.02,349.96,318.06,13.91,0000 0000 0000 0000 000000
2013-09-26 00:51:26,0.06,0.40,0.00,24.97,29.85,32.35,5.93,30.58,1004.90,2038.29,3315.13,3212.54,3485.01,350.55,318.97,13.92,0000 0000 0000 0000 000000
2013-09-26 00:52:26,0.13,0.40,0.00,24.96,29.85,32.32,5.96,30.17,1004.90,2038.45,3315.12,3212.61,3485.01,351.43,319.42,13.92,0000 0000 0000 0000 000000
2013-09-26 00:53:27,0.08,0.40,0.00,24.98,29.85,32.34,5.96,30.54,1004.90,2038.57,3315.11,3212.77,3485.01,350.01,318.12,13.93,0000 0000 0000 0000 000000
2013-09-26 00:54:27,0.07,0.41,0.00,24.99,29.85,32.34,5.91,30.33,1004.90,2038.72,3315.15,3212.84,3485.01,349.79,317.59,13.93,0000 0000 0000 0000 000000
2013-09-26 00:55:27,0.09,0.41,0.00,24.98,29.85,32.31,5.88,30.42,1004.90,2038.73,3315.14,3212.70,3485.00,350.21,318.35,13.94,0000 0000 0000 0000 000000
2013-09-26 00:56:27,0.03,0.41,0.00,24.97,29.85,32.30,5.91,30.54,1004.90,2038.73,3315.17,3212.70,3485.00,349.92,318.01,13.95,0000 0000 0000 0000 000000
2013-09-26 00:57:28,-0.01,0.41,0.00,24.99,29.85,32.28,5.75,30.58,1004.90,2038.76,3315.20,3212.78,3485.01,348.34,316.75,13.95,0000 0000 0000 0000 000000
2013-09-26 00:58:28,-0.03,0.41,0.00,25.00,29.84,32.26,5.87,30.58,1004.90,2038.77,3315.32,3212.78,3485.00,349.37,317.16,13.96,0000 0000 0000 0000 000000
2013-09-26 00:59:28,0.00,0.41,0.00,24.99,29.84,32.30,5.80,30.54,1004.90,2038.77,3315.36,3212.85,3485.00,349.47,317.97,13.96,0000 0000 0000 0000 000000
2013-09-26 01:00:29,-0.01,0.41,0.00,25.00,29.83,32.27,5.88,30.50,1004.90,2038.78,3315.50,3212.91,3485.02,350.42,318.30,13.97,0000 0000 0000 0000 000000
2013-09-26 01:01:29,-0.03,0.41,0.00,24.98,29.83,32.35,5.96,30.67,1004.90,2038.77,3315.35,3212.89,3485.04,350.66,319.03,13.98,0000 0000 0000 0000 000000
2013-09-26 01:02:29,0.04,0.41,0.00,24.98,29.82,32.33,5.81,30.67,1004.90,2038.88,3315.31,3212.91,3485.03,348.80,317.26,13.98,0000 0000 0000 0000 000000
2013-09-26 01:03:29,0.05,0.41,0.00,24.98,29.82,32.32,5.80,30.54,1004.90,2038.91,3315.33,3212.93,3485.04,349.46,317.62,13.99,0000 0000 0000 0000 000000
2013-09-26 01:04:30,0.03,0.41,0.00,24.98,29.82,32.29,5.99,30.54,1004.90,2038.94,3315.40,3212.90,3485.03,350.09,318.19,13.99,0000 0000 0000 0000 000000
2013-09-26 01:05:30,0.00,0.41,0.00,24.99,29.82,32.28,5.88,30.67,1004.90,2038.95,3315.60,3212.92,3485.02,350.30,318.38,14.00,0000 0000 0000 0000 000000
2013-09-26 01:06:30,-0.02,0.41,0.00,24.99,29.82,32.24,5.88,30.67,1004.90,2038.95,3315.74,3212.95,3485.01,350.58,318.86,14.01,0000 0000 0000 0000 000000
2013-09-26 01:07:30,-0.02,0.41,0.00,24.98,29.82,32.26,5.98,30.54,1004.90,2038.94,3315.82,3212.98,3485.01,350.08,318.18,14.01,0000 0000 0000 0000 000000
2013-09-26 01:08:31,-0.02,0.41,0.00,24.98,29.82,32.26,5.87,30.50,1004.91,2038.86,3315.85,3212.92,3485.00,349.18,317.65,14.02,0000 0000 0000 0000 000000
2013-09-26 01:09:31,-0.05,0.41,0.00,24.99,29.82,32.30,6.02,30.54,1004.90,2038.79,3315.85,3212.93,3485.01,350.99,318.86,14.02,0000 0000 0000 0000 000000
2013-09-26 01:10:31,-0.05,0.40,0.00,25.00,29.82,32.25,5.84,30.63,1004.90,2038.76,3315.92,3212.97,3485.02,350.38,318.10,14.03,0000 0000 0000 0000 000000
2013-09-26 01:11:31,-0.02,0.40,0.00,25.00,29.82,32.25,5.96,30.54,1004.91,2038.83,3315.83,3212.99,3485.00,350.47,318.56,14.03,0000 0000 0000 0000 000000
2013-09-26 01:12:32,0.04,0.41,0.00,25.02,29.82,32.24,5.83,30.21,1004.90,2038.79,3315.74,3212.89,3485.00,350.76,318.76,14.04,0000 0000 0000 0000 000000
2013-09-26 01:13:32,0.03,0.41,0.00,25.03,29.82,32.23,5.70,30.58,1004.90,2038.81,3315.83,3212.92,3485.00,348.70,316.52,14.05,0000 0000 0000 0000 000000
2013-09-26 01:14:32,-0.02,0.40,0.00,25.02,29.82,32.20,5.93,30.67,1004.90,2038.83,3315.91,3212.95,3485.00,349.31,317.17,14.05,0000 0000 0000 0000 000000
2013-09-26 01:15:33,0.01,0.41,0.00,25.02,29.82,32.20,5.98,30.71,1004.90,2038.90,3315.92,3212.97,3485.02,349.68,317.77,14.06,0000 0000 0000 0000 000000
2013-09-26 01:16:33,0.03,0.41,0.00,25.01,29.82,32.19,5.77,30.46,1004.90,2038.91,3315.94,3212.98,3485.03,348.56,316.76,14.06,0000 0000 0000 0000 000000
2013-09-26 01:17:33,-0.00,0.41,0.00,25.02,29.81,32.24,5.98,30.54,1004.90,2038.90,3315.97,3212.99,3485.03,350.74,318.25,14.07,0000 0000 0000 0000 000000
2013-09-26 01:18:33,0.01,0.41,0.00,25.02,29.81,32.24,5.75,30.58,1004.90,2038.93,3315.99,3212.99,3485.03,349.41,317.52,14.08,0000 0000 0000 0000 000000
2013-09-26 01:19:34,0.01,0.41,0.00,25.02,29.81,32.24,5.92,30.63,1004.91,2038.95,3315.99,3212.99,3485.05,350.41,318.44,14.08,0000 0000 0000 0000 000000
2013-09-26 01:20:34,0.01,0.41,0.00,25.03,29.80,32.19,5.78,30.50,1004.91,2038.98,3315.99,3212.99,3485.19,350.31,318.27,14.09,0000 0000 0000 0000 000000
2013-09-26 01:21:34,0.01,0.41,0.00,25.02,29.80,32.19,5.87,30.54,1004.90,2038.99,3315.98,3212.99,3485.35,350.37,318.40,14.09,0000 0000 0000 0000 000000
2013-09-26 01:22:35,-0.01,0.41,0.00,25.00,29.80,32.19,5.94,30.50,1004.90,2038.98,3315.97,3212.99,3485.43,349.99,318.07,14.10,0000 0000 0000 0000 000000
2013-09-26 01:23:35,-0.01,0.41,0.00,25.00,29.80,32.16,5.96,30.50,1004.90,2038.98,3315.96,3212.99,3485.60,351.25,319.22,14.10,0000 0000 0000 0000 000000
2013-09-26 01:24:35,-0.02,0.41,0.00,25.00,29.80,32.22,5.77,30.54,1004.92,2038.98,3315.97,3212.99,3485.67,349.38,317.53,14.11,0000 0000 0000 0000 000000
2013-09-26 01:25:35,-0.01,0.41,0.00,25.01,29.80,32.23,5.96,30.71,1004.92,2038.99,3315.98,3212.99,3485.78,350.17,318.23,14.12,0000 0000 0000 0000 000000
2013-09-26 01:26:36,-0.00,0.41,0.00,25.02,29.80,32.18,5.95,30.46,1004.90,2038.98,3315.99,3212.99,3485.75,350.00,318.00,14.12,0000 0000 0000 0000 000000
2013-09-26 01:27:36,0.01,0.41,0.00,25.01,29.80,32.22,5.97,30.50,1004.90,2038.98,3315.98,3212.99,3485.67,349.97,318.11,14.13,0000 0000 0000 0000 000000
2013-09-26 01:28:36,0.01,0.41,0.00,25.02,29.80,32.18,5.88,30.50,1004.90,2038.97,3315.99,3212.99,3485.59,349.97,318.14,14.13,0000 0000 0000 0000 000000
2013-09-26 01:29:37,0.00,0.41,0.00,25.02,29.80,32.15,5.84,30.33,1004.92,2038.98,3315.98,3212.99,3485.52,350.09,318.29,14.14,0000 0000 0000 0000 000000
2013-09-26 01:30:37,0.01,0.41,0.00,25.04,29.80,32.17,5.76,30.42,1004.90,2038.98,3315.95,3212.99,3485.40,348.88,317.02,14.15,0000 0000 0000 0000 000000
2013-09-26 01:31:37,0.00,0.41,0.00,25.03,29.80,32.18,5.85,30.71,1004.91,2038.97,3315.98,3212.99,3485.40,349.24,317.41,14.15,0000 0000 0000 0000 000000
2013-09-26 01:32:38,0.00,0.41,0.00,25.03,29.80,32.18,5.99,30.63,1004.90,2038.98,3315.98,3212.99,3485.27,350.00,317.91,14.16,0000 0000 0000 0000 000000
2013-09-26 01:33:38,0.02,0.41,0.00,25.02,29.80,32.17,5.96,30.50,1004.91,2038.99,3315.99,3212.99,3485.20,350.77,318.84,14.16,0000 0000 0000 0000 000000
2013-09-26 01:34:38,0.01,0.41,0.00,25.02,29.80,32.19,5.80,30.58,1004.92,2038.99,3315.99,3212.99,3485.19,349.24,316.98,14.17,0000 0000 0000 0000 000000
2013-09-26 01:35:38,0.00,0.41,0.00,25.00,29.80,32.18,5.94,30.42,1004.90,2038.99,3315.99,3212.99,3485.19,349.38,317.52,14.18,0000 0000 0000 0000 000000
2013-09-26 01:36:39,-0.01,0.41,0.00,25.00,29.80,32.17,5.93,30.42,1004.92,2038.97,3315.99,3212.99,3485.27,350.80,318.62,14.18,0000 0000 0000 0000 000000
2013-09-26 01:37:39,-0.01,0.41,0.00,24.99,29.79,32.18,5.77,30.54,1004.92,2038.98,3315.99,3212.99,3485.34,347.94,316.23,14.19,0000 0000 0000 0000 000000
2013-09-26 01:38:39,-0.01,0.41,0.00,25.00,29.79,32.20,5.88,30.46,1004.90,2038.99,3315.98,3212.99,3485.36,349.15,317.31,14.19,0000 0000 0000 0000 000000
2013-09-26 01:39:39,0.00,0.41,0.00,25.01,29.79,32.20,5.75,30.33,1004.92,2038.99,3315.97,3212.99,3485.34,349.66,317.77,14.20,0000 0000 0000 0000 000000
2013-09-26 01:40:40,0.00,0.41,0.00,25.03,29.79,32.19,6.04,30.46,1004.91,2038.98,3315.98,3212.99,3485.39,349.76,317.84,14.20,0000 0000 0000 0000 000000
2013-09-26 01:41:40,-0.01,0.41,0.00,25.05,29.79,32.18,5.93,31.00,1004.92,2038.97,3315.98,3212.99,3485.31,349.58,317.62,14.21,0000 0000 0000 0000 000000
2013-09-26 01:42:40,0.01,0.41,0.00,25.04,29.78,32.19,5.99,30.54,1004.93,2038.98,3315.95,3212.99,3485.22,350.74,318.72,14.22,0000 0000 0000 0000 000000
2013-09-26 01:43:40,0.01,0.41,0.00,25.05,29.78,32.21,5.96,30.83,1004.92,2038.95,3315.92,3212.99,3485.24,349.93,317.97,14.22,0000 0000 0000 0000 000000
2013-09-26 01:44:41,0.00,0.41,0.00,25.06,29.78,32.19,6.06,30.46,1004.93,2038.97,3315.88,3212.99,3485.21,351.48,319.37,14.23,0000 0000 0000 0000 000000
2013-09-26 01:45:41,0.01,0.41,0.00,25.06,29.78,32.16,5.88,30.46,1004.93,2038.99,3315.92,3212.99,3485.36,348.47,316.84,14.23,0000 0000 0000 0000 000000
2013-09-26 01:46:41,-0.01,0.41,0.00,25.07,29.78,32.15,5.95,30.33,1004.91,2038.98,3315.97,3212.99,3485.50,349.51,317.69,14.24,0000 0000 0000 0000 000000
2013-09-26 01:47:41,-0.01,0.41,0.00,25.07,29.78,32.11,5.87,30.58,1004.91,2038.99,3315.97,3212.99,3485.37,349.96,317.98,14.25,0000 0000 0000 0000 000000
2013-09-26 01:48:42,0.02,0.41,0.00,25.07,29.78,32.15,5.90,30.38,1004.94,2038.99,3315.94,3212.99,3485.31,349.91,317.43,14.25,0000 0000 0000 0000 000000
2013-09-26 01:49:42,0.01,0.41,0.00,25.08,29.77,32.16,5.99,30.50,1004.96,2038.99,3315.95,3212.99,3485.34,350.60,318.65,14.26,0000 0000 0000 0000 000000
2013-09-26 01:50:42,0.00,0.41,0.00,25.07,29.77,32.15,5.90,30.63,1004.93,2038.99,3315.95,3212.99,3485.20,350.98,318.91,14.26,0000 0000 0000 0000 000000
2013-09-26 01:51:42,0.01,0.41,0.00,25.08,29.77,32.16,5.95,30.38,1004.94,2038.99,3315.98,3212.99,3485.26,350.76,318.70,14.27,0000 0000 0000 0000 000000
2013-09-26 01:52:42,-0.02,0.41,0.00,25.09,29.77,32.15,5.92,30.46,1004.92,2038.99,3315.99,3212.99,3485.41,349.52,317.15,14.27,0000 0000 0000 0000 000000
2013-09-26 01:53:43,-0.01,0.41,0.00,25.08,29.77,32.18,5.90,30.33,1004.95,2038.99,3315.99,3212.99,3485.41,350.34,318.47,14.28,0000 0000 0000 0000 000000
2013-09-26 01:54:43,-0.01,0.41,0.00,25.08,29.77,32.15,5.91,30.54,1004.99,2038.97,3315.98,3212.99,3485.44,350.13,318.14,14.29,0000 0000 0000 0000 000000
2013-09-26 01:55:43,-0.00,0.41,0.00,25.07,29.77,32.14,5.98,30.46,1004.96,2038.99,3315.99,3212.99,3485.35,351.07,319.00,14.29,0000 0000 0000 0000 000000
2013-09-26 01:56:43,0.00,0.41,0.00,25.08,29.77,32.14,5.91,30.46,1004.99,2038.99,3315.99,3213.00,3485.50,349.93,318.30,14.30,0000 0000 0000 0000 000000
2013-09-26 01:57:44,0.00,0.41,0.00,25.10,29.77,32.14,5.88,30.46,1005.00,2038.99,3315.99,3213.00,3485.31,349.77,317.33,14.30,0000 0000 0000 0000 000000
2013-09-26 01:58:44,0.01,0.41,0.00,25.10,29.77,32.17,5.89,30.54,1004.99,2038.99,3315.98,3213.00,3485.29,350.33,318.39,14.31,0000 0000 0000 0000 000000
2013-09-26 01:59:44,0.00,0.41,0.00,25.09,29.77,32.16,5.96,30.63,1004.99,2038.97,3315.99,3213.00,3485.40,349.59,317.68,14.32,0000 0000 0000 0000 000000
2013-09-26 02:00:44,-0.02,0.41,0.00,25.09,29.77,32.14,5.79,30.50,1004.98,2038.97,3315.98,3213.00,3485.54,349.00,316.98,14.32,0000 0000 0000 0000 000000
2013-09-26 02:01:44,-0.01,0.41,0.00,25.11,29.77,32.15,5.99,30.58,1005.04,2038.99,3315.98,3213.00,3485.67,350.99,318.91,14.33,0000 0000 0000 0000 000000
2013-09-26 02:02:45,0.00,0.41,0.00,25.11,29.77,32.13,6.01,30.29,1005.09,2038.99,3315.99,3213.01,3485.70,350.82,318.77,14.33,0000 0000 0000 0000 000000
2013-09-26 02:03:45,0.00,0.41,0.00,25.12,29.77,32.09,5.88,30.38,1005.15,2038.99,3315.97,3213.01,3485.72,349.67,317.74,14.34,0000 0000 0000 0000 000000
2013-09-26 02:04:45,0.01,0.41,0.00,25.11,29.77,32.11,5.88,30.50,1005.16,2038.99,3315.98,3213.00,3485.51,349.07,317.20,14.35,0000 0000 0000 0000 000000
2013-09-26 02:05:45,0.02,0.41,0.00,25.10,29.77,32.12,5.89,30.58,1005.24,2038.99,3315.95,3213.00,3485.53,350.17,318.23,14.35,0000 0000 0000 0000 000000
2013-09-26 02:06:46,-0.01,0.41,0.00,25.10,29.77,32.14,5.93,30.58,1005.27,2038.99,3315.94,3213.00,3485.40,349.04,317.22,14.36,0000 0000 0000 0000 000000
2013-09-26 02:07:46,0.02,0.41,0.00,25.11,29.77,32.15,5.86,30.50,1005.29,2038.99,3315.94,3213.00,3485.28,348.80,317.10,14.36,0000 0000 0000 0000 000000
2013-09-26 02:08:46,0.01,0.41,0.00,25.10,29.77,32.15,5.76,30.50,1005.29,2038.99,3315.86,3213.00,3485.16,349.59,318.14,14.37,0000 0000 0000 0000 000000
2013-09-26 02:09:46,0.02,0.41,0.00,25.10,29.77,32.14,5.88,30.54,1005.24,2038.98,3315.90,3213.00,3485.13,349.91,318.38,14.37,0000 0000 0000 0000 000000
2013-09-26 02:10:47,-0.01,0.41,0.00,25.12,29.77,32.14,5.78,30.54,1005.17,2038.99,3315.96,3213.01,3485.20,349.07,317.30,14.38,0000 0000 0000 0000 000000
2013-09-26 02:11:47,-0.01,0.41,0.00,25.11,29.77,32.15,5.77,30.46,1005.30,2038.99,3315.95,3213.00,3485.32,349.25,317.81,14.39,0000 0000 0000 0000 000000
2013-09-26 02:12:47,-0.00,0.41,0.00,25.10,29.77,32.12,5.97,30.46,1005.31,2038.99,3315.92,3213.00,3485.30,350.37,318.44,14.39,0000 0000 0000 0000 000000
2013-09-26 02:13:47,0.00,0.41,0.00,25.10,29.77,32.09,5.82,30.42,1005.24,2038.99,3315.94,3213.02,3485.35,349.20,317.76,14.40,0000 0000 0000 0000 000000
2013-09-26 02:14:48,-0.02,0.41,0.00,25.08,29.77,32.09,5.76,30.63,1005.32,2038.99,3315.94,3213.02,3485.52,348.32,316.60,14.40,0000 0000 0000 0000 000000
2013-09-26 02:15:48,-0.01,0.41,0.00,25.08,29.77,32.13,5.89,30.67,1005.34,2038.99,3315.93,3213.00,3485.47,350.44,318.54,14.41,0000 0000 0000 0000 000000
2013-09-26 02:16:48,0.02,0.41,0.00,25.08,29.77,32.12,6.04,30.46,1005.33,2038.99,3315.96,3213.00,3485.24,349.98,318.11,14.42,0000 0000 0000 0000 000000
2013-09-26 02:17:48,0.02,0.41,0.00,25.09,29.77,32.12,5.98,30.42,1005.33,2038.99,3315.94,3213.00,3485.13,349.90,318.12,14.42,0000 0000 0000 0000 000000
2013-09-26 02:18:49,0.00,0.41,0.00,25.09,29.77,32.13,5.94,30.50,1005.34,2038.99,3315.94,3213.00,3485.11,349.74,318.26,14.43,0000 0000 0000 0000 000000
2013-09-26 02:19:49,0.00,0.41,0.00,25.09,29.77,32.17,6.02,30.42,1005.33,2038.98,3315.94,3213.00,3485.08,350.46,318.46,14.43,0000 0000 0000 0000 000000
2013-09-26 02:20:49,0.00,0.41,0.00,25.11,29.77,32.16,5.91,30.67,1005.31,2038.98,3315.93,3213.00,3485.05,350.63,318.88,14.44,0000 0000 0000 0000 000000
2013-09-26 02:21:49,0.00,0.41,0.00,25.10,29.77,32.14,5.89,30.42,1005.35,2038.99,3315.91,3213.00,3485.10,350.41,318.49,14.44,0000 0000 0000 0000 000000
2013-09-26 02:22:49,0.00,0.41,0.00,25.11,29.77,32.14,5.76,30.38,1005.32,2038.98,3315.95,3213.00,3485.09,349.72,317.75,14.45,0000 0000 0000 0000 000000
2013-09-26 02:23:50,-0.02,0.41,0.00,25.13,29.77,32.13,5.96,30.46,1005.32,2038.97,3315.95,3213.00,3485.07,351.21,319.19,14.46,0000 0000 0000 0000 000000
2013-09-26 02:24:50,0.01,0.41,0.00,25.13,29.77,32.12,5.80,30.42,1005.38,2038.99,3315.93,3213.00,3485.11,348.81,317.01,14.46,0000 0000 0000 0000 000000
2013-09-26 02:25:50,0.01,0.41,0.00,25.12,29.77,32.14,5.79,30.25,1005.38,2038.99,3315.75,3213.00,3485.18,350.44,318.51,14.47,0000 0000 0000 0000 000000
2013-09-26 02:26:50,0.02,0.41,0.00,25.12,29.77,32.14,5.90,30.54,1005.37,2038.99,3315.67,3213.00,3485.18,349.89,317.94,14.47,0000 0000 0000 0000 000000
2013-09-26 02:27:50,0.01,0.41,0.00,25.13,29.77,32.12,5.92,30.38,1005.39,2038.99,3315.35,3213.00,3485.17,350.70,318.96,14.48,0000 0000 0000 0000 000000
2013-09-26 02:28:51,0.04,0.41,0.00,25.12,29.77,32.12,6.08,30.58,1005.38,2038.99,3315.15,3213.00,3485.12,351.69,319.33,14.49,0000 0000 0000 0000 000000
2013-09-26 02:29:51,0.02,0.41,0.00,25.13,29.77,32.16,5.99,30.63,1005.38,2038.99,3315.05,3213.00,3485.09,350.51,318.38,14.49,0000 0000 0000 0000 000000
2013-09-26 02:30:51,0.01,0.41,0.00,25.12,29.77,32.13,5.85,30.54,1005.38,2038.98,3315.02,3212.99,3485.04,349.40,317.73,14.50,0000 0000 0000 0000 000000
2013-09-26 02:31:51,0.00,0.41,0.00,25.12,29.77,32.14,5.88,30.50,1005.39,2038.99,3315.01,3212.99,3485.01,349.42,317.77,14.50,0000 0000 0000 0000 000000
2013-09-26 02:32:51,0.00,0.41,0.00,25.12,29.77,32.11,5.79,30.38,1005.39,2038.99,3315.02,3212.98,3485.00,349.70,317.62,14.51,0000 0000 0000 0000 000000
2013-09-26 02:33:52,0.00,0.41,0.00,25.13,29.77,32.10,5.83,30.33,1005.39,2038.99,3315.02,3212.99,3485.00,348.89,317.09,14.52,0000 0000 0000 0000 000000
2013-09-26 02:34:52,0.00,0.41,0.00,25.12,29.77,32.13,5.82,30.38,1005.39,2038.99,3315.00,3212.99,3485.00,349.15,317.20,14.52,0000 0000 0000 0000 000000
2013-09-26 02:35:52,0.00,0.41,0.00,25.13,29.77,32.12,5.97,30.42,1005.38,2038.99,3315.00,3212.99,3485.00,350.90,318.41,14.53,0000 0000 0000 0000 000000